TimeAKDT,TemperatureF,Dew PointF,Humidity,Sea Level PressureIn,VisibilityMPH,Wind Direction,Wind SpeedMPH,Gust SpeedMPH,PrecipitationIn,Events,Conditions,WindDirDegrees,DateUTC
12:53 AM,48.0,46.0,93,29.84,10.0,SE,12.7,19.6,0.01,,Overcast,140,2013-05-18 08:53:00
1:14 AM,48.2,46.4,93,29.84,10.0,SE,12.7,19.6,N/A,,Overcast,140,2013-05-18 09:14:00
1:39 AM,48.2,46.4,93,29.84,10.0,SE,10.4,-,0.00,Rain,Light Rain,140,2013-05-18 09:39:00
1:53 AM,48.0,46.0,93,29.85,10.0,SSE,10.4,17.3,0.01,,Overcast,150,2013-05-18 09:53:00
2:53 AM,48.0,46.0,93,29.86,6.0,SSE,13.8,21.9,0.08,Rain,Rain,150,2013-05-18 10:53:00
3:53 AM,48.0,46.0,93,29.87,8.0,SSE,11.5,20.7,0.07,Rain,Light Rain,150,2013-05-18 11:53:00
4:53 AM,48.0,46.0,93,29.88,9.0,SSE,11.5,19.6,0.04,Rain,Light Rain,150,2013-05-18 12:53:00
5:53 AM,46.9,46.0,97,29.89,7.0,SSE,9.2,-,0.07,Rain,Light Rain,150,2013-05-18 13:53:00
6:53 AM,48.0,46.0,93,29.90,4.0,SE,13.8,18.4,0.06,Rain,Rain,140,2013-05-18 14:53:00
7:53 AM,48.0,46.0,93,29.91,7.0,SE,10.4,-,0.10,Rain,Light Rain,140,2013-05-18 15:53:00
8:53 AM,46.9,46.0,97,29.93,4.0,SSE,5.8,-,0.04,Rain,Light Rain,160,2013-05-18 16:53:00
9:15 AM,46.4,44.6,93,29.94,6.0,SSE,5.8,-,0.02,Rain,Light Rain,160,2013-05-18 17:15:00
9:39 AM,46.4,46.4,100,29.94,8.0,Calm,Calm,-,0.05,Rain,Light Rain,0,2013-05-18 17:39:00
9:53 AM,48.0,46.9,96,29.95,10.0,Calm,Calm,-,0.05,Rain,Light Rain,0,2013-05-18 17:53:00
10:53 AM,48.0,46.0,93,29.98,8.0,SSE,4.6,-,0.02,,Overcast,160,2013-05-18 18:53:00
11:20 AM,48.2,46.4,93,29.99,10.0,Calm,Calm,-,0.00,,Overcast,0,2013-05-18 19:20:00
11:53 AM,51.1,46.0,83,30.01,10.0,SSE,6.9,-,0.00,,Overcast,150,2013-05-18 19:53:00
12:04 PM,50.0,46.4,87,30.01,10.0,SSE,6.9,-,N/A,,Overcast,160,2013-05-18 20:04:00
12:34 PM,51.8,46.4,82,30.02,10.0,SSW,8.1,-,N/A,,Overcast,200,2013-05-18 20:34:00
12:53 PM,53.1,46.0,77,30.04,10.0,SSW,9.2,-,N/A,,Mostly Cloudy,210,2013-05-18 20:53:00
1:53 PM,53.1,45.0,74,30.07,10.0,SW,10.4,16.1,N/A,,Overcast,220,2013-05-18 21:53:00
2:02 PM,55.4,44.6,67,30.07,10.0,WSW,8.1,-,N/A,,Overcast,250,2013-05-18 22:02:00
2:53 PM,53.1,43.0,69,30.10,10.0,WSW,9.2,17.3,N/A,,Mostly Cloudy,240,2013-05-18 22:53:00
3:53 PM,53.1,43.0,69,30.14,10.0,Variable,6.9,16.1,N/A,,Partly Cloudy,0,2013-05-18 23:53:00
4:53 PM,52.0,43.0,71,30.17,10.0,West,6.9,-,N/A,,Overcast,260,2013-05-19 00:53:00
5:53 PM,51.1,41.0,68,30.20,10.0,West,9.2,16.1,N/A,,Scattered Clouds,270,2013-05-19 01:53:00
6:53 PM,50.0,39.9,68,30.23,10.0,West,8.1,-,N/A,,Mostly Cloudy,270,2013-05-19 02:53:00
7:53 PM,46.9,37.0,68,30.26,10.0,Variable,3.5,-,N/A,,Partly Cloudy,0,2013-05-19 03:53:00
8:53 PM,44.1,37.0,76,30.29,10.0,Variable,5.8,-,N/A,,Clear,0,2013-05-19 04:53:00
9:53 PM,44.1,34.0,68,30.32,10.0,West,5.8,-,N/A,,Scattered Clouds,280,2013-05-19 05:53:00
10:53 PM,42.1,30.9,65,30.35,10.0,West,3.5,-,N/A,,Clear,280,2013-05-19 06:53:00
11:53 PM,41.0,33.1,73,30.38,10.0,Calm,Calm,-,N/A,,Clear,0,2013-05-19 07:53:00